| time (UTC) | temp F | wind direction | speed MPH | gust MPH | rain 1hr in | rain 24hr in | rain mn in | humidity % | barometer mb |
| 20260505093042 | 60 | 0 | 0.0 | 4.0 | 0.03 | 0.03 | 0.03 | 84 | 1010.2 |
| 20260505092526 | 61 | 243 | 0.0 | 4.0 | 0.02 | 0.02 | 0.02 | 83 | 1010.1 |
| 20260505092026 | 62 | 0 | 0.0 | 3.0 | 0.01 | 0.01 | 0.01 | 80 | 1010.0 |
| 20260505091541 | 63 | 0 | 0.0 | 3.0 | 0.00 | 0.00 | 0.00 | 76 | 1009.4 |
| 20260505091027 | 64 | 0 | 0.0 | 3.0 | 0.00 | 0.00 | 0.00 | 72 | 1009.4 |
| 20260505090528 | 64 | 0 | 0.0 | 4.0 | 0.00 | 0.00 | 0.00 | 70 | 1009.5 |
| 20260505090054 | 64 | 0 | 1.0 | 4.0 | 0.00 | 0.00 | 0.00 | 67 | 1009.1 |
| 20260505085525 | 64 | 193 | 1.0 | 5.0 | 0.00 | 0.00 | 0.00 | 66 | 1008.9 |
| 20260505085024 | 64 | 172 | 1.0 | 5.0 | 0.00 | 0.00 | 0.00 | 66 | 1008.8 |
| 20260505084548 | 64 | 213 | 2.0 | 5.0 | 0.00 | 0.00 | 0.00 | 67 | 1008.7 |
| 20260505084024 | 64 | 187 | 1.0 | 6.0 | 0.00 | 0.00 | 0.00 | 66 | 1008.7 |
| 20260505083524 | 64 | 180 | 2.0 | 6.0 | 0.00 | 0.00 | 0.00 | 66 | 1008.7 |
| 20260505083038 | 64 | 189 | 1.0 | 5.0 | 0.00 | 0.00 | 0.00 | 66 | 1008.6 |
| 20260505082524 | 64 | 176 | 2.0 | 7.0 | 0.00 | 0.00 | 0.00 | 67 | 1008.5 |
| 20260505082024 | 64 | 175 | 2.0 | 7.0 | 0.00 | 0.00 | 0.00 | 66 | 1008.1 |
| 20260505081543 | 64 | 182 | 2.0 | 6.0 | 0.00 | 0.00 | 0.00 | 66 | 1008.1 |
| 20260505081029 | 64 | 206 | 1.0 | 6.0 | 0.00 | 0.00 | 0.00 | 67 | 1007.9 |
| 20260505080527 | 64 | 159 | 0.0 | 4.0 | 0.00 | 0.00 | 0.00 | 67 | 1007.9 |
| 20260505080042 | 64 | 192 | 1.0 | 3.0 | 0.00 | 0.00 | 0.00 | 66 | 1007.9 |
| 20260505075527 | 65 | 196 | 0.0 | 3.0 | 0.00 | 0.00 | 0.00 | 65 | 1008.0 |
| 20260505075026 | 65 | 175 | 1.0 | 5.0 | 0.00 | 0.00 | 0.00 | 65 | 1008.2 |
| 20260505074539 | 65 | 163 | 1.0 | 7.0 | 0.00 | 0.00 | 0.00 | 64 | 1008.1 |
| 20260505074025 | 65 | 188 | 2.0 | 7.0 | 0.00 | 0.00 | 0.00 | 64 | 1008.2 |
| 20260505073525 | 65 | 238 | 2.0 | 7.0 | 0.00 | 0.00 | 0.00 | 64 | 1008.1 |
| 20260505073041 | 65 | 175 | 1.0 | 6.0 | 0.00 | 0.00 | 0.00 | 64 | 1007.9 |
| 20260505072523 | 65 | 187 | 3.0 | 7.0 | 0.00 | 0.00 | 0.00 | 63 | 1007.8 |
| 20260505072024 | 66 | 184 | 3.0 | 11.0 | 0.00 | 0.00 | 0.00 | 64 | 1007.7 |
| 20260505071537 | 66 | 190 | 3.0 | 11.0 | 0.00 | 0.00 | 0.00 | 63 | 1007.5 |
| 20260505071025 | 66 | 0 | 3.0 | 7.0 | 0.00 | 0.00 | 0.00 | 63 | 1007.6 |
| 20260505070525 | 66 | 203 | 2.0 | 6.0 | 0.00 | 0.00 | 0.00 | 64 | 1007.6 |
| 20260505070043 | 66 | 186 | 3.0 | 7.0 | 0.00 | 0.00 | 0.00 | 63 | 1007.6 |
| 20260505065526 | 66 | 167 | 2.0 | 9.0 | 0.00 | 0.00 | 0.00 | 64 | 1007.7 |
| 20260505065022 | 66 | 210 | 4.0 | 11.0 | 0.00 | 0.00 | 0.00 | 63 | 1007.7 |
| 20260505064541 | 66 | 188 | 4.0 | 11.0 | 0.00 | 0.00 | 0.00 | 63 | 1007.6 |
| 20260505064024 | 66 | 234 | 3.0 | 8.0 | 0.00 | 0.00 | 0.00 | 64 | 1007.6 |
| 20260505063526 | 66 | 178 | 3.0 | 10.0 | 0.00 | 0.00 | 0.00 | 62 | 1007.6 |
| 20260505063040 | 66 | 191 | 4.0 | 13.0 | 0.00 | 0.00 | 0.00 | 63 | 1007.6 |
| 20260505062528 | 66 | 186 | 3.0 | 13.0 | 0.00 | 0.00 | 0.00 | 63 | 1007.6 |
| 20260505062024 | 66 | 184 | 3.0 | 9.0 | 0.00 | 0.00 | 0.00 | 64 | 1007.6 |
| 20260505061540 | 66 | 228 | 2.0 | 12.0 | 0.00 | 0.00 | 0.00 | 63 | 1007.6 |
| 20260505061025 | 66 | 180 | 4.0 | 12.0 | 0.00 | 0.00 | 0.00 | 62 | 1007.7 |
| 20260505060524 | 67 | 186 | 3.0 | 13.0 | 0.00 | 0.00 | 0.00 | 62 | 1007.6 |
| 20260505060040 | 67 | 221 | 4.0 | 14.0 | 0.00 | 0.00 | 0.00 | 62 | 1007.5 |
| 20260505055524 | 67 | 178 | 5.0 | 14.0 | 0.00 | 0.00 | 0.00 | 62 | 1007.5 |
| 20260505055023 | 67 | 175 | 3.0 | 9.0 | 0.00 | 0.00 | 0.00 | 62 | 1007.3 |
| 20260505054541 | 67 | 171 | 4.0 | 10.0 | 0.00 | 0.00 | 0.00 | 62 | 1007.2 |
| 20260505054026 | 67 | 177 | 3.0 | 15.0 | 0.00 | 0.00 | 0.00 | 63 | 1007.1 |
| 20260505053522 | 67 | 189 | 4.0 | 15.0 | 0.00 | 0.00 | 0.00 | 63 | 1007.0 |
| 20260505053045 | 67 | 161 | 3.0 | 11.0 | 0.00 | 0.00 | 0.00 | 62 | 1007.1 |
| 20260505052523 | 67 | 188 | 4.0 | 11.0 | 0.00 | 0.00 | 0.00 | 62 | 1006.9 |
| 20260505052023 | 67 | 229 | 4.0 | 9.0 | 0.00 | 0.00 | 0.00 | 61 | 1006.9 |
| 20260505051538 | 68 | 200 | 3.0 | 10.0 | 0.00 | 0.00 | 0.00 | 61 | 1007.0 |
| 20260505051022 | 68 | 189 | 4.0 | 10.0 | 0.00 | 0.00 | 0.00 | 60 | 1006.8 |
| 20260505050527 | 68 | 179 | 4.0 | 11.0 | 0.00 | 0.00 | 0.00 | 60 | 1007.0 |
| 20260505041537 | 67 | 217 | 4.0 | 11.0 | 0.00 | 0.00 | 0.00 | 63 | 1007.6 |
| 20260505041025 | 68 | 210 | 2.0 | 8.0 | 0.00 | 0.00 | 0.00 | 64 | 1007.6 |
| 20260505040524 | 68 | 190 | 2.0 | 8.0 | 0.00 | 0.00 | 0.00 | 62 | 1007.6 |
| 20260505040042 | 68 | 194 | 4.0 | 7.0 | 0.00 | 0.00 | 0.00 | 62 | 1007.7 |
| 20260505035525 | 68 | 236 | 3.0 | 10.0 | 0.00 | 0.00 | 0.00 | 63 | 1007.8 |
| 20260505035024 | 68 | 193 | 3.0 | 11.0 | 0.00 | 0.00 | 0.00 | 62 | 1007.8 |
| 20260505034537 | 68 | 181 | 4.0 | 12.0 | 0.00 | 0.00 | 0.00 | 61 | 1007.9 |
| 20260505034023 | 68 | 182 | 4.0 | 12.0 | 0.00 | 0.00 | 0.00 | 62 | 1007.9 |
| 20260505033523 | 68 | 186 | 2.0 | 8.0 | 0.00 | 0.00 | 0.00 | 64 | 1007.7 |
| 20260505033100 | 68 | 181 | 3.0 | 8.0 | 0.00 | 0.00 | 0.00 | 64 | 1007.8 |
| 20260505032525 | 68 | 184 | 2.0 | 7.0 | 0.00 | 0.00 | 0.00 | 64 | 1007.7 |
| 20260505032022 | 68 | 176 | 2.0 | 7.0 | 0.00 | 0.00 | 0.00 | 65 | 1007.7 |
| 20260505031539 | 68 | 214 | 2.0 | 7.0 | 0.00 | 0.00 | 0.00 | 64 | 1007.6 |
| 20260505031022 | 68 | 203 | 2.0 | 7.0 | 0.00 | 0.00 | 0.00 | 63 | 1007.7 |
| 20260505030522 | 68 | 189 | 2.0 | 9.0 | 0.00 | 0.00 | 0.00 | 63 | 1007.7 |
| 20260505030037 | 68 | 181 | 3.0 | 9.0 | 0.00 | 0.00 | 0.00 | 63 | 1007.6 |
| 20260505025526 | 68 | 203 | 3.0 | 9.0 | 0.00 | 0.00 | 0.00 | 63 | 1007.5 |
| 20260505025023 | 68 | 222 | 2.0 | 9.0 | 0.00 | 0.00 | 0.00 | 63 | 1007.4 |
| 20260505024536 | 68 | 195 | 3.0 | 7.0 | 0.00 | 0.00 | 0.00 | 64 | 1007.4 |
| 20260505024023 | 68 | 205 | 3.0 | 7.0 | 0.00 | 0.00 | 0.00 | 63 | 1007.2 |
| 20260505023526 | 68 | 180 | 2.0 | 8.0 | 0.00 | 0.00 | 0.00 | 65 | 1007.1 |
| 20260505023049 | 68 | 189 | 2.0 | 8.0 | 0.00 | 0.00 | 0.00 | 66 | 1007.1 |
| 20260505022527 | 67 | 182 | 3.0 | 8.0 | 0.00 | 0.00 | 0.00 | 64 | 1007.2 |
| 20260505022023 | 67 | 208 | 2.0 | 8.0 | 0.00 | 0.00 | 0.00 | 66 | 1007.0 |
| 20260505021537 | 67 | 196 | 2.0 | 8.0 | 0.00 | 0.00 | 0.00 | 66 | 1007.0 |
| 20260505021027 | 67 | 184 | 1.0 | 5.0 | 0.00 | 0.00 | 0.00 | 66 | 1006.9 |
| 20260505020525 | 67 | 190 | 2.0 | 5.0 | 0.00 | 0.00 | 0.00 | 66 | 1006.8 |
| 20260505020041 | 67 | 188 | 2.0 | 5.0 | 0.00 | 0.00 | 0.00 | 66 | 1006.6 |
| 20260505015523 | 67 | 203 | 1.0 | 4.0 | 0.00 | 0.00 | 0.00 | 67 | 1006.6 |
| 20260505015026 | 67 | 194 | 0.0 | 4.0 | 0.00 | 0.00 | 0.00 | 67 | 1006.5 |
| 20260505014538 | 67 | 215 | 1.0 | 2.0 | 0.00 | 0.00 | 0.00 | 67 | 1006.5 |
| 20260505014023 | 67 | 0 | 0.0 | 2.0 | 0.00 | 0.00 | 0.00 | 67 | 1006.4 |
| 20260505013525 | 67 | 199 | 0.0 | 2.0 | 0.00 | 0.00 | 0.00 | 66 | 1006.4 |
| 20260505013038 | 67 | 205 | 1.0 | 4.0 | 0.00 | 0.00 | 0.00 | 65 | 1006.4 |
| 20260505012522 | 68 | 188 | 1.0 | 4.0 | 0.00 | 0.00 | 0.00 | 65 | 1006.5 |
| 20260505012023 | 68 | 194 | 0.0 | 3.0 | 0.00 | 0.00 | 0.00 | 65 | 1006.4 |
| 20260505011540 | 68 | 193 | 1.0 | 3.0 | 0.00 | 0.00 | 0.00 | 65 | 1006.3 |
| 20260505011023 | 68 | 191 | 0.0 | 3.0 | 0.00 | 0.00 | 0.00 | 65 | 1006.3 |
| 20260505010523 | 68 | 0 | 1.0 | 3.0 | 0.00 | 0.00 | 0.00 | 64 | 1006.3 |
| 20260505010042 | 69 | 215 | 1.0 | 4.0 | 0.00 | 0.00 | 0.00 | 63 | 1006.3 |
| 20260505005523 | 69 | 238 | 2.0 | 4.0 | 0.00 | 0.00 | 0.00 | 63 | 1006.3 |
| 20260505005023 | 69 | 0 | 0.0 | 0.0 | 0.00 | 0.00 | 0.00 | 63 | 1006.2 |
| 20260505004545 | 69 | 0 | 0.0 | 3.0 | 0.00 | 0.00 | 0.00 | 63 | 1006.3 |
| 20260505004023 | 69 | 0 | 0.0 | 5.0 | 0.00 | 0.00 | 0.00 | 61 | 1006.4 |
| 20260505003522 | 70 | 192 | 1.0 | 5.0 | 0.00 | 0.00 | 0.00 | 61 | 1006.3 |
| 20260505003039 | 70 | 188 | 1.0 | 3.0 | 0.00 | 0.00 | 0.00 | 62 | 1006.2 |
| 20260505002522 | 70 | 190 | 1.0 | 3.0 | 0.00 | 0.00 | 0.00 | 61 | 1006.2 |
| 20260505002023 | 70 | 204 | 1.0 | 6.0 | 0.00 | 0.00 | 0.00 | 60 | 1006.3 |
| 20260505001539 | 71 | 195 | 1.0 | 6.0 | 0.00 | 0.00 | 0.00 | 59 | 1006.4 |
| 20260505001022 | 71 | 183 | 2.0 | 6.0 | 0.00 | 0.00 | 0.00 | 58 | 1006.3 |
| 20260505000526 | 71 | 174 | 2.0 | 5.0 | 0.00 | 0.00 | 0.00 | 58 | 1006.4 |
| 20260505000037 | 72 | 184 | 2.0 | 6.0 | 0.00 | 0.00 | 0.00 | 57 | 1006.5 |
| 20260504235523 | 72 | 184 | 2.0 | 6.0 | 0.00 | 0.00 | 0.00 | 57 | 1006.4 |
| 20260504235023 | 72 | 178 | 2.0 | 6.0 | 0.00 | 0.00 | 0.00 | 56 | 1006.6 |
| 20260504234558 | 73 | 206 | 2.0 | 9.0 | 0.00 | 0.00 | 0.00 | 55 | 1006.5 |
| 20260504234023 | 73 | 174 | 2.0 | 10.0 | 0.00 | 0.00 | 0.00 | 55 | 1006.7 |
| 20260504233523 | 73 | 202 | 4.0 | 10.0 | 0.00 | 0.00 | 0.00 | 53 | 1006.9 |
| 20260504233039 | 73 | 207 | 2.0 | 11.0 | 0.00 | 0.00 | 0.00 | 55 | 1006.9 |
| 20260504232523 | 73 | 173 | 4.0 | 11.0 | 0.00 | 0.00 | 0.00 | 53 | 1007.0 |
| 20260504232022 | 73 | 211 | 3.0 | 9.0 | 0.00 | 0.00 | 0.00 | 53 | 1007.1 |
| 20260504231549 | 74 | 180 | 2.0 | 13.0 | 0.00 | 0.00 | 0.00 | 54 | 1007.2 |
| 20260504231022 | 74 | 252 | 2.0 | 13.0 | 0.00 | 0.00 | 0.00 | 50 | 1007.2 |
| 20260504230524 | 75 | 205 | 3.0 | 11.0 | 0.00 | 0.00 | 0.00 | 50 | 1007.3 |
| 20260504230038 | 75 | 175 | 4.0 | 12.0 | 0.00 | 0.00 | 0.00 | 49 | 1007.3 |
| 20260504225528 | 75 | 234 | 5.0 | 13.0 | 0.00 | 0.00 | 0.00 | 49 | 1007.4 |
| 20260504225024 | 75 | 223 | 3.0 | 17.0 | 0.00 | 0.00 | 0.00 | 52 | 1007.3 |
| 20260504224538 | 75 | 182 | 4.0 | 17.0 | 0.00 | 0.00 | 0.00 | 49 | 1007.3 |
| 20260504224022 | 75 | 165 | 5.0 | 17.0 | 0.00 | 0.00 | 0.00 | 50 | 1007.3 |
| 20260504223524 | 75 | 175 | 5.0 | 22.0 | 0.00 | 0.00 | 0.00 | 51 | 1007.3 |
| 20260504223038 | 74 | 172 | 4.0 | 22.0 | 0.00 | 0.00 | 0.00 | 52 | 1007.3 |
| 20260504222526 | 74 | 170 | 4.0 | 10.0 | 0.00 | 0.00 | 0.00 | 53 | 1007.3 |
| 20260504222022 | 74 | 191 | 4.0 | 10.0 | 0.00 | 0.00 | 0.00 | 57 | 1007.4 |
| 20260504221539 | 74 | 199 | 2.0 | 5.0 | 0.00 | 0.00 | 0.00 | 57 | 1007.3 |
| 20260504221027 | 74 | 197 | 2.0 | 5.0 | 0.00 | 0.00 | 0.00 | 56 | 1007.4 |
| 20260504220523 | 74 | 0 | 1.0 | 3.0 | 0.00 | 0.00 | 0.00 | 59 | 1007.4 |
| 20260504220039 | 74 | 184 | 1.0 | 2.0 | 0.00 | 0.00 | 0.00 | 60 | 1007.3 |
| 20260504215523 | 74 | 0 | 0.0 | 3.0 | 0.00 | 0.00 | 0.00 | 61 | 1007.2 |
| 20260504215023 | 74 | 196 | 1.0 | 3.0 | 0.00 | 0.00 | 0.00 | 58 | 1007.4 |
| 20260504214540 | 74 | 0 | 0.0 | 4.0 | 0.00 | 0.00 | 0.00 | 58 | 1007.6 |
| 20260504214024 | 75 | 175 | 0.0 | 5.0 | 0.00 | 0.00 | 0.00 | 57 | 1007.6 |
| 20260504213526 | 75 | 187 | 1.0 | 6.0 | 0.00 | 0.00 | 0.00 | 54 | 1007.9 |
| 20260504213037 | 75 | 196 | 2.0 | 8.0 | 0.00 | 0.00 | 0.00 | 51 | 1007.8 |
| 20260504212525 | 76 | 181 | 2.0 | 8.0 | 0.00 | 0.00 | 0.00 | 54 | 1007.9 |
| 20260504212022 | 76 | 205 | 3.0 | 7.0 | 0.00 | 0.00 | 0.00 | 51 | 1007.9 |
| 20260504211539 | 76 | 136 | 1.0 | 7.0 | 0.00 | 0.00 | 0.00 | 52 | 1008.0 |
| 20260504211025 | 76 | 150 | 2.0 | 7.0 | 0.00 | 0.00 | 0.00 | 51 | 1008.1 |
| 20260504210525 | 76 | 250 | 2.0 | 7.0 | 0.00 | 0.00 | 0.00 | 51 | 1008.2 |
| 20260504210042 | 76 | 201 | 1.0 | 9.0 | 0.00 | 0.00 | 0.00 | 51 | 1008.2 |
| 20260504205524 | 76 | 223 | 1.0 | 9.0 | 0.00 | 0.00 | 0.00 | 53 | 1008.1 |
| 20260504205022 | 76 | 211 | 1.0 | 11.0 | 0.00 | 0.00 | 0.00 | 51 | 1008.2 |
| 20260504204618 | 75 | 190 | 3.0 | 11.0 | 0.00 | 0.00 | 0.00 | 51 | 1008.1 |
| 20260504204023 | 75 | 226 | 3.0 | 11.0 | 0.00 | 0.00 | 0.00 | 50 | 1008.2 |
| 20260504203524 | 76 | 184 | 4.0 | 11.0 | 0.00 | 0.00 | 0.00 | 50 | 1008.2 |
| 20260504203039 | 76 | 156 | 2.0 | 12.0 | 0.00 | 0.00 | 0.00 | 53 | 1008.3 |
| 20260504202523 | 75 | 185 | 4.0 | 12.0 | 0.00 | 0.00 | 0.00 | 55 | 1008.4 |
| 20260504202024 | 74 | 200 | 2.0 | 9.0 | 0.00 | 0.00 | 0.00 | 57 | 1008.5 |
| 20260504201539 | 74 | 183 | 3.0 | 9.0 | 0.00 | 0.00 | 0.00 | 58 | 1008.6 |
| 20260504201022 | 73 | 198 | 3.0 | 11.0 | 0.00 | 0.00 | 0.00 | 56 | 1008.7 |
| 20260504200524 | 74 | 153 | 4.0 | 11.0 | 0.00 | 0.00 | 0.00 | 55 | 1008.7 |
| 20260504200040 | 74 | 177 | 4.0 | 11.0 | 0.00 | 0.00 | 0.00 | 56 | 1008.8 |
| 20260504195526 | 74 | 187 | 3.0 | 11.0 | 0.00 | 0.00 | 0.00 | 58 | 1008.8 |
| 20260504195023 | 74 | 212 | 4.0 | 9.0 | 0.00 | 0.00 | 0.00 | 55 | 1009.0 |
| 20260504194546 | 74 | 211 | 1.0 | 9.0 | 0.00 | 0.00 | 0.00 | 61 | 1009.0 |
| 20260504194025 | 73 | 212 | 3.0 | 9.0 | 0.00 | 0.00 | 0.00 | 57 | 1009.1 |
| 20260504193522 | 73 | 181 | 2.0 | 10.0 | 0.00 | 0.00 | 0.00 | 58 | 1009.1 |
| 20260504193036 | 73 | 182 | 3.0 | 10.0 | 0.00 | 0.00 | 0.00 | 60 | 1009.3 |
| 20260504192526 | 73 | 178 | 2.0 | 11.0 | 0.00 | 0.00 | 0.00 | 60 | 1009.3 |
| 20260504192023 | 72 | 234 | 5.0 | 11.0 | 0.00 | 0.00 | 0.00 | 57 | 1009.5 |
| 20260504191543 | 71 | 186 | 4.0 | 16.0 | 0.00 | 0.00 | 0.00 | 62 | 1009.6 |
| 20260504191023 | 71 | 184 | 3.0 | 16.0 | 0.00 | 0.00 | 0.00 | 63 | 1009.5 |
| 20260504190523 | 71 | 182 | 2.0 | 10.0 | 0.00 | 0.00 | 0.00 | 63 | 1009.4 |
| 20260504190040 | 71 | 184 | 3.0 | 8.0 | 0.00 | 0.00 | 0.00 | 63 | 1009.6 |
| 20260504185522 | 70 | 165 | 2.0 | 7.0 | 0.00 | 0.00 | 0.00 | 64 | 1009.8 |
| 20260504185024 | 69 | 149 | 2.0 | 6.0 | 0.00 | 0.00 | 0.00 | 68 | 1009.8 |
| 20260504184548 | 69 | 183 | 2.0 | 6.0 | 0.00 | 0.00 | 0.00 | 65 | 1009.8 |
| 20260504184027 | 69 | 200 | 1.0 | 6.0 | 0.00 | 0.00 | 0.00 | 65 | 1009.9 |
| 20260504183526 | 69 | 170 | 1.0 | 8.0 | 0.00 | 0.00 | 0.00 | 66 | 1009.9 |
| 20260504183038 | 69 | 183 | 2.0 | 8.0 | 0.00 | 0.00 | 0.00 | 65 | 1009.9 |
| 20260504182528 | 69 | 182 | 3.0 | 8.0 | 0.00 | 0.00 | 0.00 | 65 | 1009.8 |
| 20260504182026 | 69 | 132 | 3.0 | 12.0 | 0.00 | 0.00 | 0.00 | 64 | 1009.9 |
| 20260504181538 | 69 | 231 | 4.0 | 12.0 | 0.00 | 0.00 | 0.00 | 64 | 1009.9 |
| 20260504181025 | 69 | 182 | 4.0 | 9.0 | 0.00 | 0.00 | 0.00 | 64 | 1009.7 |
| 20260504180523 | 69 | 211 | 2.0 | 6.0 | 0.00 | 0.00 | 0.00 | 64 | 1009.7 |
| 20260504180037 | 69 | 186 | 1.0 | 13.0 | 0.00 | 0.00 | 0.00 | 65 | 1009.7 |
| 20260504175524 | 69 | 175 | 2.0 | 13.0 | 0.00 | 0.00 | 0.00 | 63 | 1009.5 |
| 20260504175027 | 70 | 205 | 4.0 | 11.0 | 0.00 | 0.00 | 0.00 | 61 | 1009.5 |
| 20260504174540 | 70 | 188 | 3.0 | 12.0 | 0.00 | 0.00 | 0.00 | 64 | 1009.4 |
| 20260504174025 | 70 | 150 | 5.0 | 12.0 | 0.00 | 0.00 | 0.00 | 61 | 1009.2 |
| 20260504173529 | 70 | 209 | 4.0 | 12.0 | 0.00 | 0.00 | 0.00 | 62 | 1009.2 |
| 20260504173038 | 70 | 159 | 3.0 | 9.0 | 0.00 | 0.00 | 0.00 | 63 | 1009.1 |
| 20260504172525 | 70 | 279 | 3.0 | 11.0 | 0.00 | 0.00 | 0.00 | 65 | 1009.2 |
| 20260504172025 | 69 | 189 | 5.0 | 11.0 | 0.00 | 0.00 | 0.00 | 63 | 1009.2 |
| 20260504171544 | 69 | 183 | 5.0 | 11.0 | 0.00 | 0.00 | 0.00 | 62 | 1009.3 |
| 20260504171026 | 68 | 185 | 5.0 | 12.0 | 0.00 | 0.00 | 0.00 | 63 | 1009.4 |
| 20260504170526 | 68 | 146 | 3.0 | 12.0 | 0.00 | 0.00 | 0.00 | 65 | 1009.5 |
| 20260504151027 | 64 | 232 | 2.0 | 7.0 | 0.00 | 0.00 | 0.00 | 69 | 1010.3 |
| 20260504150525 | 63 | 225 | 3.0 | 9.0 | 0.00 | 0.00 | 0.00 | 69 | 1010.2 |
| 20260504141029 | 60 | 180 | 1.0 | 6.0 | 0.00 | 0.00 | 0.00 | 74 | 1010.3 |
| 20260504140527 | 60 | 242 | 2.0 | 7.0 | 0.00 | 0.00 | 0.00 | 71 | 1010.3 |
| 20260504130526 | 56 | 216 | 2.0 | 6.0 | 0.00 | 0.00 | 0.00 | 74 | 1010.8 |
| 20260504110526 | 54 | 178 | 2.0 | 7.0 | 0.00 | 0.00 | 0.00 | 70 | 1010.4 |
| 20260504100524 | 52 | 196 | 0.0 | 4.0 | 0.00 | 0.00 | 0.00 | 72 | 1010.8 |